IRIDIUM 33 DEB

Satellite information

Favourite Embed

Satellite Type and Status

DEBRISIN ORBIT

Key statistics

Satellite IRIDIUM 33 DEB at a glance.

Uptime

10269

Days in orbit

Revolutions

≈ 14.4

Per day

Orbit

LEO

Low Earth Orbit

Inclination

86.3

Latest

Satellite identification and parameters

Extended collection of information and parameters for IRIDIUM 33 DEB.

Object identification

Identified? True

Debris? True

Object name: IRIDIUM 33 DEB

International designator: 1997-051T

Object number (NORAD): 33850

Object ID (CCSDS): 33850

Country: UNITED STATES OF AMERICA (US)

Current information (Y/N): Y

RCS size: MEDIUM

Orbital parameters

Period: 99.867 minutes

Inclination: 86.3427 deg

SMA: 7130.293 km

Apoapsis: 759.274 km

Periapsis: 745.043 km

RAAN: 51.1782 deg

Eccentricy: 0.00099796

Argument of periapsis: 338.2782 deg

Mean anomaly: 141.4852 deg

Mean motion: 14.41921631 rev/day

Mean motion (dot): 0.00002176 rev/day2

B* drag term: 0.00065842915 1/REarth

Two-line elements (TLE)

Creation date: Oct. 25, 2025, 3:11 a.m.

Reference frame: TEME

Reference center: EARTH

Epoch: Oct. 24, 2025, 8:59 p.m. UTC

TLE line 0: 0 IRIDIUM 33 DEB

TLE line 1: 1 33850U 97051T 25297.87482273 .00002176 00000-0 65843-3 0 9992

TLE line 2: 2 33850 86.3427 51.1782 0009980 338.2782 141.4852 14.41921631874482

Live tracking on map

Real-time ground track for satellite IRIDIUM 33 DEB.

In-orbit conjunctions

A list of the most updated potential collisions computed for object IRIDIUM 33 DEB.

Target Orbit TCA Probability of collision Miss distance Type
FENGYUN 1C DEB SSO 2025-05-29 05:22:36 0.0001042538 100.0 (m) DEBRIS
CZ-2D DEB SSO 2024-12-20 11:31:42 0.0001473251 497.0 (m) DEBRIS
COSMOS 2251 DEB LEO 2024-06-15 11:32:56 0.0001091712 732.0 (m) DEBRIS

Associated space launch

Iridium provides global mobile telecommunications services using a constellation of 66 low earth orbit satellites in a 86.4° inclined orbit. Although 77 satellites were originally envisioned for the system and spawned the name based on the 77th element in the periodic table, the system has been scaled back. Motorola's Satellite Communications Group designed and manufactured the Iridium satellites with Lockheed Martin providing the LM-700A spacecraft buses.

IRIDIUM 33 DEB was lifted into orbit during the mission ‘Proton-K/17S40 | Iridium 27 to 33’, on board a Proton-K/17S40 space rocket.

The launch took place on Sept. 14, 1997, 1:36 a.m. from 81/23 (81L).

For more information about the launch, click the button.

Launch to space Proton-K/17S40 | Iridium 27 to 33
Proton-K/17S40 | Iridium 27 to 33

Agency: N/A

Status: Launch Successful

Launch date: Sept. 14, 1997, 1:36 a.m. UTC

Rocket: Proton-K/17S40

Launch pad: 81/23 (81L)

Location: Baikonur Cosmodrome, Republic of Kazakhstan

...

Latest news about this satellite

There are no fresh news available about this satellite. Check back as we update our databases every day.


Newsletter sign-up

Weekly statistics, charts and insights to help you stay on top of the space industry.